�������l�o���
Date,Time,MP-1(��Sv/h),MP-2(��Sv/h),MP-3(��Sv/h),MP-4(��Sv/h),MP-5(��Sv/h),MP-6(��Sv/h),MP-7(��Sv/h),MP-8(��Sv/h),����,����(m/s),���J
2016/11/16,00:00,1.110,1.889,1.272,2.128,1.482,0.581,1.061,0.977,�k��,5.5,��
2016/11/16,00:10,1.109,1.891,1.275,2.131,1.484,0.583,1.063,0.976,�k��,5.3,��
2016/11/16,00:20,1.110,1.888,1.271,2.130,1.482,0.582,1.062,0.978,�k��,5.3,��
2016/11/16,00:30,1.108,1.886,1.272,2.128,1.483,0.580,1.062,0.977,�k��,4.8,��
2016/11/16,00:40,1.107,1.889,1.271,2.131,1.483,0.584,1.062,0.976,�k��,5.1,��
2016/11/16,00:50,1.108,1.886,1.271,2.128,1.482,0.581,1.061,0.976,�k��,7.2,��
2016/11/16,01:00,1.109,1.889,1.272,2.132,1.480,0.582,1.062,0.978,�k��,6.8,��
2016/11/16,01:10,1.109,1.889,1.272,2.130,1.481,0.583,1.063,0.978,�k�k��,5.7,��
2016/11/16,01:20,1.108,1.891,1.273,2.127,1.482,0.582,1.061,0.978,�k�k��,6.8,��
2016/11/16,01:30,1.106,1.889,1.270,2.130,1.479,0.582,1.061,0.978,�k��,5.6,��
2016/11/16,01:40,1.109,1.888,1.271,2.129,1.477,0.582,1.061,0.978,�k�k��,5.2,��
2016/11/16,01:50,1.107,1.887,1.273,2.130,1.480,0.583,1.062,0.978,�k�k��,3.7,��
2016/11/16,02:00,1.106,1.885,1.274,2.131,1.482,0.581,1.060,0.977,�k��,4.9,��
2016/11/16,02:10,1.108,1.884,1.271,2.127,1.482,0.580,1.060,0.978,�k�k��,5.1,��
2016/11/16,02:20,1.108,1.885,1.271,2.129,1.480,0.581,1.060,0.976,�k�k��,5.0,��
2016/11/16,02:30,1.107,1.886,1.271,2.127,1.483,0.581,1.060,0.978,�k�k��,4.6,��
2016/11/16,02:40,1.110,1.887,1.269,2.124,1.479,0.580,1.060,0.978,�k��,5.4,��
2016/11/16,02:50,1.107,1.885,1.270,2.127,1.482,0.581,1.062,0.979,�k�k��,5.8,��
2016/11/16,03:00,1.106,1.887,1.271,2.128,1.480,0.580,1.059,0.975,�k�k��,6.0,��
2016/11/16,03:10,1.108,1.886,1.268,2.130,1.484,0.582,1.061,0.976,�k�k��,6.1,��
2016/11/16,03:20,1.107,1.889,1.268,2.126,1.481,0.583,1.060,0.975,�k�k��,6.0,��
2016/11/16,03:30,1.106,1.887,1.270,2.130,1.485,0.580,1.062,0.976,�k�k��,7.5,��
2016/11/16,03:40,1.105,1.887,1.271,2.129,1.484,0.581,1.059,0.975,�k�k��,7.1,��
2016/11/16,03:50,1.107,1.887,1.269,2.128,1.479,0.581,1.059,0.976,�k�k��,6.2,��
2016/11/16,04:00,1.107,1.889,1.272,2.130,1.481,0.581,1.061,0.977,�k��,2.6,��
2016/11/16,04:10,1.108,1.891,1.271,2.126,1.481,0.581,1.059,0.976,�k��,2.3,��
2016/11/16,04:20,1.104,1.888,1.270,2.128,1.479,0.581,1.058,0.975,�k��,1.2,��
2016/11/16,04:30,1.106,1.888,1.270,2.125,1.479,0.581,1.060,0.973,�k��,3.2,��
2016/11/16,04:40,1.108,1.886,1.268,2.128,1.478,0.581,1.058,0.976,�k�k��,4.4,��
2016/11/16,04:50,1.106,1.885,1.268,2.127,1.479,0.577,1.058,0.976,�k�k��,4.6,��
2016/11/16,05:00,1.106,1.885,1.270,2.124,1.478,0.578,1.058,0.975,�k�k��,4.1,��
2016/11/16,05:10,1.105,1.884,1.270,2.123,1.477,0.579,1.060,0.975,�k�k��,4.4,��
2016/11/16,05:20,1.109,1.886,1.270,2.125,1.476,0.580,1.058,0.975,�k�k��,4.9,��
2016/11/16,05:30,1.104,1.885,1.269,2.124,1.480,0.578,1.059,0.973,�k�k��,5.6,��
2016/11/16,05:40,1.107,1.882,1.268,2.125,1.478,0.579,1.056,0.976,�k��,4.7,��
2016/11/16,05:50,1.109,1.887,1.268,2.124,1.478,0.580,1.058,0.977,�k��,4.4,��
2016/11/16,06:00,1.106,1.885,1.266,2.125,1.479,0.579,1.057,0.977,�k��,4.5,��
2016/11/16,06:10,1.106,1.884,1.267,2.123,1.477,0.579,1.059,0.974,�k�k��,3.8,��
2016/11/16,06:20,1.105,1.884,1.265,2.125,1.478,0.579,1.058,0.974,�k�k��,3.8,��
2016/11/16,06:30,1.105,1.883,1.263,2.123,1.477,0.579,1.059,0.975,�k�k��,3.1,��
2016/11/16,06:40,1.108,1.887,1.264,2.125,1.476,0.578,1.057,0.976,�k��,0.6,��
2016/11/16,06:50,1.103,1.885,1.264,2.124,1.478,0.579,1.056,0.975,�쓌,0.9,��
2016/11/16,07:00,1.105,1.885,1.265,2.123,1.477,0.580,1.057,0.976,�k��,0.6,��
2016/11/16,07:10,1.107,1.886,1.262,2.126,1.480,0.580,1.057,0.976,���k��,0.6,��
2016/11/16,07:20,1.106,1.885,1.262,2.126,1.478,0.580,1.058,0.977,��,1.2,��
2016/11/16,07:30,1.107,1.885,1.260,2.126,1.478,0.578,1.058,0.975,��쓌,1.1,��
2016/11/16,07:40,1.109,1.886,1.267,2.128,1.477,0.579,1.059,0.977,�쓌,1.5,��
2016/11/16,07:50,1.104,1.887,1.265,2.125,1.477,0.578,1.059,0.976,���쓌,1.1,��
2016/11/16,08:00,1.105,1.886,1.265,2.126,1.476,0.578,1.059,0.975,���k��,1.4,��
2016/11/16,08:10,1.108,1.884,1.266,2.127,1.477,0.581,1.059,0.976,�k��,2.0,��
2016/11/16,08:20,1.107,1.886,1.269,2.129,1.476,0.580,1.059,0.977,�k�k��,2.6,��
2016/11/16,08:30,1.108,1.885,1.266,2.130,1.477,0.578,1.061,0.975,�k,3.8,��
2016/11/16,08:40,1.109,1.888,1.268,2.128,1.479,0.580,1.060,0.976,�k,1.7,��
2016/11/16,08:50,1.107,1.891,1.268,2.129,1.478,0.580,1.060,0.978,�k,2.3,��
2016/11/16,09:00,1.105,1.889,1.267,2.127,1.478,0.578,1.060,0.976,�k��,1.9,��
2016/11/16,09:10,1.106,1.888,1.268,2.132,1.481,0.581,1.060,0.977,�k�k��,0.9,��
2016/11/16,09:20,1.106,1.891,1.269,2.132,1.480,0.579,1.059,0.977,�k�k��,2.6,��
2016/11/16,09:30,1.108,1.891,1.268,2.131,1.480,0.580,1.060,0.977,�k��,2.5,��
2016/11/16,09:40,1.106,1.892,1.267,2.132,1.482,0.581,1.060,0.978,�k��,4.8,��
2016/11/16,09:50,1.108,1.888,1.270,2.132,1.481,0.580,1.057,0.978,��,2.6,��
2016/11/16,10:00,1.106,1.890,1.269,2.134,1.482,0.583,1.060,0.977,���k��,2.6,��
2016/11/16,10:10,1.110,1.888,1.270,2.133,1.483,0.582,1.060,0.978,�k�k��,3.5,��
2016/11/16,10:20,1.110,1.891,1.266,2.133,1.484,0.583,1.060,0.978,�k�k��,3.3,��
2016/11/16,10:30,1.108,1.890,1.265,2.133,1.482,0.580,1.059,0.977,�k��,4.1,��
2016/11/16,10:40,1.108,1.886,1.270,2.133,1.486,0.581,1.060,0.976,��,4.2,��
2016/11/16,10:50,1.108,1.892,1.268,2.134,1.483,0.579,1.060,0.975,���쐼,2.8,��
2016/11/16,11:00,1.107,1.888,1.270,2.135,1.484,0.579,1.061,0.978,��,5.2,��
2016/11/16,11:10,1.111,1.890,1.274,2.134,1.485,0.579,1.062,0.979,���k��,4.7,��
2016/11/16,11:20,1.109,1.891,1.275,2.137,1.486,0.580,1.061,0.978,�k��,5.4,��
2016/11/16,11:30,1.109,1.894,1.273,2.137,1.486,0.579,1.063,0.979,��,2.6,��
2016/11/16,11:40,1.109,1.889,1.274,2.133,1.484,0.580,1.061,0.978,��,6.4,��
2016/11/16,11:50,1.110,1.892,1.277,2.137,1.486,0.581,1.062,0.980,��,7.4,��
2016/11/16,12:00,1.108,1.891,1.279,2.134,1.483,0.582,1.061,0.979,���k��,8.9,��
2016/11/16,12:10,1.108,1.893,1.275,2.135,1.488,0.583,1.061,0.979,��,5.1,��
2016/11/16,12:20,1.110,1.894,1.277,2.139,1.486,0.582,1.059,0.980,��,6.4,��
2016/11/16,12:30,1.109,1.893,1.277,2.135,1.486,0.582,1.062,0.978,���쐼,6.6,��
2016/11/16,12:40,1.109,1.891,1.276,2.137,1.487,0.586,1.061,0.977,��,7.0,��
2016/11/16,12:50,1.111,1.896,1.274,2.138,1.489,0.584,1.062,0.975,��,8.3,��
2016/11/16,13:00,1.111,1.894,1.275,2.137,1.487,0.584,1.060,0.976,���쐼,8.2,��
2016/11/16,13:10,1.110,1.891,1.276,2.140,1.490,0.585,1.061,0.975,��,8.3,��
2016/11/16,13:20,1.110,1.893,1.274,2.138,1.489,0.584,1.060,0.977,��,8.0,��
2016/11/16,13:30,1.109,1.896,1.278,2.140,1.487,0.583,1.062,0.975,���쐼,10.2,��
2016/11/16,13:40,1.108,1.889,1.274,2.139,1.489,0.584,1.062,0.977,��,11.3,��
2016/11/16,13:50,1.112,1.895,1.276,2.141,1.491,0.584,1.061,0.976,��,7.1,��
2016/11/16,14:00,1.111,1.894,1.274,2.138,1.492,0.583,1.062,0.976,��,8.6,��
2016/11/16,14:10,1.114,1.892,1.276,2.139,1.487,0.586,1.061,0.976,��,6.7,��
2016/11/16,14:20,1.112,1.892,1.277,2.142,1.491,0.583,1.061,0.975,��,6.9,��
2016/11/16,14:30,1.113,1.896,1.275,2.140,1.492,0.585,1.063,0.976,��,7.5,��
2016/11/16,14:40,1.112,1.895,1.278,2.143,1.491,0.586,1.062,0.976,���k��,7.7,��
2016/11/16,14:50,1.110,1.891,1.280,2.141,1.492,0.584,1.062,0.977,��,5.3,��
2016/11/16,15:00,1.113,1.898,1.279,2.143,1.489,0.584,1.059,0.979,��,6.2,��
2016/11/16,15:10,1.112,1.901,1.281,2.143,1.490,0.582,1.061,0.980,��,5.2,��
2016/11/16,15:20,1.112,1.899,1.279,2.141,1.491,0.585,1.061,0.979,���k��,5.0,��
2016/11/16,15:30,1.113,1.900,1.279,2.139,1.492,0.584,1.061,0.980,�k��,3.8,��
2016/11/16,15:40,1.112,1.900,1.279,2.142,1.489,0.584,1.061,0.978,�k��,4.0,��
2016/11/16,15:50,1.112,1.901,1.281,2.142,1.489,0.583,1.061,0.978,�k��,3.1,��
2016/11/16,16:00,1.112,1.897,1.270,2.137,1.489,0.584,1.061,0.979,�k��,3.3,��
2016/11/16,16:10,1.112,1.898,1.277,2.142,1.488,0.583,1.063,0.978,�k�k��,3.7,��
2016/11/16,16:20,1.108,1.898,1.277,2.139,1.485,0.582,1.063,0.980,�k��,4.5,��
2016/11/16,16:30,1.111,1.902,1.281,2.140,1.492,0.584,1.061,0.978,�k��,3.4,��
2016/11/16,16:40,1.110,1.895,1.278,2.139,1.492,0.583,1.063,0.977,�k��,3.3,��
2016/11/16,16:50,1.110,1.899,1.279,2.139,1.492,0.583,1.062,0.977,�k�k��,3.0,��
2016/11/16,17:00,1.109,1.901,1.277,2.139,1.493,0.584,1.060,0.975,�k�k��,3.3,��
2016/11/16,17:10,1.111,1.899,1.276,2.138,1.490,0.584,1.058,0.978,�k�k��,2.9,��
2016/11/16,17:20,1.110,1.898,1.278,2.135,1.492,0.582,1.063,0.978,�k,2.9,��
2016/11/16,17:30,1.110,1.899,1.277,2.135,1.491,0.583,1.061,0.976,�k�k��,2.8,��
2016/11/16,17:40,1.109,1.899,1.277,2.136,1.489,0.580,1.061,0.978,�k�k��,3.0,��
2016/11/16,17:50,1.109,1.898,1.275,2.136,1.491,0.581,1.059,0.976,�k�k��,3.5,��
2016/11/16,18:00,1.109,1.895,1.275,2.136,1.490,0.582,1.062,0.977,�k��,4.0,��
2016/11/16,18:10,1.107,1.898,1.276,2.136,1.491,0.580,1.060,0.977,�k��,3.7,��
2016/11/16,18:20,1.109,1.897,1.274,2.137,1.490,0.581,1.059,0.978,���k��,3.7,��
2016/11/16,18:30,1.108,1.896,1.275,2.136,1.490,0.580,1.059,0.976,���k��,3.5,��
2016/11/16,18:40,1.108,1.897,1.277,2.137,1.489,0.580,1.061,0.976,���k��,4.5,��
2016/11/16,18:50,1.109,1.898,1.276,2.136,1.491,0.581,1.059,0.975,���k��,4.3,��
2016/11/16,19:00,1.107,1.898,1.276,2.132,1.490,0.580,1.060,0.977,���k��,2.3,��
2016/11/16,19:10,1.108,1.898,1.276,2.135,1.491,0.581,1.061,0.977,���k��,0.9,��
2016/11/16,19:20,1.107,1.896,1.275,2.138,1.492,0.580,1.059,0.978,���k��,0.6,��
2016/11/16,19:30,1.108,1.896,1.275,2.134,1.491,0.582,1.058,0.976,���쐼,0.6,��
2016/11/16,19:40,1.108,1.896,1.275,2.136,1.489,0.580,1.059,0.975,�쐼,1.5,��
2016/11/16,19:50,1.109,1.896,1.276,2.136,1.489,0.581,1.058,0.977,�쐼,1.7,��
2016/11/16,20:00,1.108,1.896,1.274,2.138,1.487,0.581,1.059,0.975,�쐼,4.2,��
2016/11/16,20:10,1.106,1.896,1.274,2.137,1.487,0.581,1.059,0.977,�쐼,4.2,��
2016/11/16,20:20,1.107,1.899,1.273,2.136,1.490,0.581,1.059,0.978,�쐼,4.9,��
2016/11/16,20:30,1.108,1.896,1.275,2.135,1.491,0.581,1.059,0.977,��쐼,4.4,��
2016/11/16,20:40,1.105,1.896,1.272,2.138,1.488,0.580,1.057,0.976,��쐼,5.3,��
2016/11/16,20:50,1.106,1.898,1.275,2.136,1.491,0.581,1.057,0.977,�쐼,5.5,��
2016/11/16,21:00,1.107,1.898,1.275,2.137,1.493,0.579,1.059,0.977,�쐼,5.1,��
2016/11/16,21:10,1.105,1.897,1.276,2.134,1.491,0.580,1.059,0.976,�쐼,5.1,��
2016/11/16,21:20,1.107,1.896,1.275,2.137,1.489,0.580,1.059,0.976,�쐼,4.7,��
2016/11/16,21:30,1.107,1.899,1.274,2.137,1.489,0.581,1.058,0.976,�쐼,5.4,��
2016/11/16,21:40,1.107,1.897,1.276,2.136,1.493,0.579,1.059,0.977,�쐼,5.2,��
2016/11/16,21:50,1.110,1.898,1.274,2.136,1.486,0.580,1.059,0.976,��,5.4,��
2016/11/16,22:00,1.109,1.897,1.277,2.137,1.490,0.581,1.059,0.977,���쐼,6.1,��
2016/11/16,22:10,1.111,1.896,1.276,2.136,1.490,0.582,1.060,0.975,���쐼,7.7,��
2016/11/16,22:20,1.110,1.899,1.277,2.135,1.493,0.581,1.060,0.979,���쐼,5.2,��
2016/11/16,22:30,1.109,1.896,1.275,2.136,1.490,0.581,1.062,0.977,���쐼,4.1,��
2016/11/16,22:40,1.110,1.895,1.276,2.137,1.490,0.581,1.060,0.977,���쐼,2.9,��
2016/11/16,22:50,1.109,1.897,1.274,2.134,1.487,0.580,1.062,0.978,���k��,2.0,��
2016/11/16,23:00,1.107,1.895,1.274,2.136,1.490,0.581,1.061,0.977,�k�k��,2.8,��
2016/11/16,23:10,1.109,1.897,1.276,2.135,1.489,0.581,1.060,0.977,�k��,2.3,��
2016/11/16,23:20,1.109,1.895,1.276,2.137,1.485,0.580,1.062,0.975,�k�k��,4.1,��
2016/11/16,23:30,1.106,1.897,1.274,2.135,1.488,0.580,1.059,0.977,�k�k��,4.7,��
2016/11/16,23:40,1.109,1.895,1.274,2.134,1.487,0.580,1.061,0.977,�k��,5.2,��
2016/11/16,23:50,1.107,1.899,1.274,2.136,1.488,0.579,1.059,0.978,�k��,5.2,��
